Regional Weather Roundup
Issued by NWS

Home | Current Version | Previous Version | Text Only | Print | Product List | Glossary Off
Versions: 1 2 3 4 5 6 7 8 9 10 11 12 13 14 15 16 17 18 19 20 21 22 23 24 25 26 27 28 29 30 31 32 33 34 35 36 37 38 39 40 41 42 43 44 45 46 47 48 49 50

000
ASUS43 KDTX 240201
RWRMI
MICHIGAN HOURLY REGIONAL WEATHER ROUNDUP
NATIONAL WEATHER SERVICE DETROIT/PONTIAC MI
1000 PM EDT SAT JUL 23 2016

NOTE: "FAIR" INDICATES FEW OR NO CLOUDS BELOW 12,000 FEET WITH NO
SIGNIFICANT WEATHER AND/OR OBSTRUCTION TO VISIBILITY.

MIZ047>049-052>055-059>063-066>070-074>076-081>083-240300-
SOUTHEAST LOWER MICHIGAN

CITY           SKY/WX    TMP DP  RH WIND       PRES   REMARKS
ADRIAN         PTCLDY    80  72  76 CALM      29.98R
ALMA           CLOUDY    75  71  87 CALM      29.96S
ANN ARBOR      PTCLDY    82  63  52 NE5       29.97S
BAD AXE        PTCLDY    70  59  67 CALM      30.00S
CARO           PTCLDY    74  62  66 E5        29.98R
DETROIT CITY   PTCLDY    80  62  54 E5        29.99R
DETROIT        PTCLDY    84  61  45 E8        29.99R
FLINT          PTCLDY    82  65  56 SE8       29.98R
GROSSE ILE     PTCLDY    81  65  58 NE6       29.98R
HOWELL         CLOUDY    77  61  57 E3        29.98S

CITY           SKY/WX    TMP DP  RH WIND       PRES   REMARKS
JACKSON        CLOUDY    79  72  79 CALM      29.98S
LAMBERTVILLE   CLOUDY    78  70  76 CALM      29.98R
LANSING        CLOUDY    77  67  71 E5        29.96F
LAPEER         FAIR      74  62  67 S6        30.00R
MASON          CLOUDY    76  68  76 CALM      29.97F
MONROE         CLEAR     75  69  81 CALM      29.97R
MT. CLEMENS    MOCLDY    74  63  68 NE6       29.97R
PONTIAC        CLOUDY    79  61  53 E5        30.00R
PORT HOPE        N/A     72  62  71 SE5       29.98R
PORT HURON     CLEAR     64  63  94 S3        30.00R
TRI CITIES     CLOUDY    80  61  52 S3        29.97R
MIDLAND        FAIR      74  67  78 CALM      29.95R
TROY           PTCLDY    84  55  36 NE6       30.02R
SAGINAW HB     MOCLDY    77  63  61 SE6       29.96S
$$
MIZ043>046-050>051-056>058-064>065-071>073-077>080-240300-
SOUTHWEST LOWER MICHIGAN

CITY           SKY/WX    TMP DP  RH WIND       PRES   REMARKS
BATTLE CREEK   CLOUDY    80  65  59 S3        29.98S
BENTON HARBOR  CLOUDY    79  71  76 W7        30.00R
BIG RAPIDS     MOCLDY    73  70  89 W3        29.95R
COLDWATER      CLOUDY    76  74  93 CALM      29.97S
FREMONT        FAIR      77  75  94 CALM      29.94R
HOLLAND        CLOUDY    79  71  76 SW7       29.97R
GRAND RAPIDS   CLOUDY    82  71  69 S5        29.95S
IONIA          FAIR      78  67  68 SE5       29.94S
KALAMAZOO      CLOUDY    80  68  66 S3        29.98R
LUDINGTON      CLOUDY    73  69  88 CALM      29.92S
MARSHALL       CLOUDY    78  71  79 CALM      29.97S
MOUNT PLEASANT CLOUDY    75  68  77 SE5       29.95S
MUSKEGON       CLOUDY    80  73  79 S5        29.94R
SOUTH HAVEN    RAIN      77  73  89 S3        29.98R
$$
MIZ016>042-240300-
NORTHERN LOWER MICHIGAN

CITY           SKY/WX    TMP DP  RH WIND       PRES   REMARKS
ALPENA         PTCLDY    72  60  66 CALM      29.98S
BEAVER ISLAND  CLOUDY    69  66  91 CALM      29.95R
BELLAIRE       CLOUDY    71  68  89 CALM      29.94S
CADILLAC       CLOUDY    74  64  73 CALM      29.96F
CHARLEVOIX     CLOUDY    73  65  77 CALM      29.98R
FRANKFORT      CLOUDY    73  65  74 CALM      29.92R
GAYLORD        MOCLDY    78  61  55 E5        29.98S
GRAYLING       CLOUDY    72  64  74 S3        29.99R
HARBOR SPRINGS PTCLDY    73  65  78 NE5       29.95R
HOUGHTON LAKE  PTCLDY    75  62  64 SE7       29.98S
MANISTEE       CLOUDY    73  65  75 CALM      29.93R
OSCODA         PTCLDY    74  58  56 E3        29.98R
PELLSTON       PTCLDY    69  65  86 CALM      29.96R
ROGERS CITY    PTCLDY    76  58  52 SE6       29.98R
TRAVERSE CITY  CLOUDY    76  66  71 CALM      29.91F
$$
MIZ007>008-015-240300-
EASTERN UPPER MICHIGAN

CITY           SKY/WX    TMP DP  RH WIND       PRES   REMARKS
KINROSS        PTCLDY    74  64  71 N3        29.96S
MACKINAC ISLAN MOCLDY    70  58  67 CALM      29.95R
NEWBERRY       CLOUDY    69  64  84 CALM      29.95S
S. S. MARIE    CLOUDY    72  63  73 CALM      29.95S
$$
MIZ004>006-011>014-085-240300-
CENTRAL UPPER MICHIGAN

CITY           SKY/WX    TMP DP  RH WIND       PRES   REMARKS
MANISTIQUE     CLOUDY    68  65  90 CALM      29.92S
ESCANABA       CLOUDY    73  64  73 SE5       29.89F
MENOMINEE      CLOUDY    76  64  66 SE7       29.90F
SAWYER-GWINN   CLEAR     73  59  60 S6        29.92F
$$
MIZ001>003-009>011-084-240300-
WESTERN UPPER MICHIGAN

CITY           SKY/WX    TMP DP  RH WIND       PRES   REMARKS
IRON MOUNTAIN  CLOUDY    76  63  64 SE5       29.90S
HOUGHTON       CLOUDY    67  57  70 E9        29.88F
COPPER HARBOR    N/A     69  59  70 VRB6      29.88F
IRONWOOD       CLOUDY    75  70  83 S8        29.84S
$$

ABBREVIATIONS USED IN REMARKS
   TC - TEMPERATURE IN CELSIUS
  WCI - WIND CHILL INDEX
   HX - HEAT INDEX
  VSB - VISIBILITY




USA.gov is the U.S. government's official web portal to all federal, state and local government web resources and services.